GW5241 Weather Reports


time (UTC)temp
F
wind
direction
speed
knots
gust
knots
rain 1hr
in
rain 24hr
in
rain mn
in
humidity
%
barometer
mb
20260510120033 57 351 0.9 1.7 0.00 0.00 0.00 85 1017.6
20260510114531 0 0.0 0.0 0.00 0.00 0.00 1017.1
20260510113030 0 0.0 0.0 0.00 0.00 0.00 1016.9
20260510111532 0 0.0 0.0 0.00 0.00 0.00 1016.5
20260510110033 0 0.0 0.0 0.00 0.00 0.00 1016.0
20260510104532 0 0.0 0.0 0.00 0.00 0.00 1015.9
20260510103034 0 0.0 0.0 0.00 0.00 0.00 1016.1
20260510101532 0 0.0 0.0 0.00 0.00 0.00 1016.0
20260510100032 0 0.0 0.0 0.00 0.00 0.00 1016.0
20260510094536 0 0.0 0.0 0.00 0.00 0.00 1016.0
20260510093006 0 0.0 0.0 0.00 0.00 0.00 1015.8
20260510091505 0 0.0 0.0 0.00 0.00 0.00 1015.3
20260510090006 0 110 0.0 0.0 0.00 0.00 0.00 80 1015.2
20260510084508 60 110 0.0 1.7 0.00 0.00 0.00 79 1015.1
20260510083007 61 110 0.0 1.7 0.00 0.00 0.00 76 1015.1
20260510081508 61 209 0.9 1.7 0.00 0.00 0.00 77 1015.2
20260510080010 61 303 0.0 3.5 0.00 0.00 0.00 77 1015.1
20260510074506 60 316 0.9 8.7 0.00 0.00 0.00 79 1014.9
20260510073011 59 18 0.9 2.6 0.00 0.00 0.00 83 1014.4
20260510071509 59 114 0.0 3.5 0.00 0.01 0.00 81 1013.8
20260510070012 60 148 0.9 3.5 0.00 0.01 0.00 79 1014.0
20260510064531 59 168 0.0 2.6 0.00 0.01 0.00 81 1014.3
20260510063014 58 144 0.9 1.7 0.00 0.01 0.00 1014.6
20260510061512 59 106 0.0 0.0 0.00 0.01 0.00 1014.7
20260510060014 58 155 0.0 2.6 0.00 0.01 0.00 82 1015.0
20260510054514 58 138 0.9 3.5 0.00 0.01 0.00 83 1015.1
20260510053034 58 132 1.7 2.6 0.00 0.01 0.00 84 1015.1
20260510051516 58 103 0.0 0.0 0.00 0.01 0.00 84 1015.0
20260510050010 58 101 0.0 0.0 0.00 0.01 0.00 84 1015.0
20260510044518 59 109 0.9 2.6 0.00 0.01 0.01 84 1014.7
20260510043017 59 92 0.9 1.7 0.00 0.01 0.01 83 1014.7
20260510041517 60 172 0.9 1.7 0.00 0.01 0.01 82 1014.6
20260510040018 60 99 0.9 2.6 0.00 0.01 0.01 81 1014.9
20260510034514 61 136 0.9 2.6 0.00 0.01 0.01 81 1014.7
20260510033020 62 115 0.9 2.6 0.00 0.01 0.01 79 1014.3
20260510031528 62 121 0.0 2.6 0.00 0.01 0.01 78 1014.0
20260510030020 62 138 1.7 2.6 0.00 0.01 0.01 77 1013.9
20260510024521 64 80 0.0 2.6 0.00 0.01 0.01 75 1013.9
20260510023020 65 91 0.0 1.7 0.00 0.01 0.01 73 1013.4
20260510021528 65 111 0.9 2.6 0.00 0.01 0.01 72 1013.0
20260510020009 66 85 0.0 1.7 0.00 0.01 0.01 68 1012.6
20260510014513 67 85 0.0 1.7 0.00 0.01 0.01 67 1012.4
20260510013012 69 85 0.0 1.7 0.00 0.01 0.01 62 1012.2
20260510011509 71 111 0.0 1.7 0.00 0.01 0.01 56 1011.8
20260510010006 74 112 0.0 1.7 0.00 0.01 0.01 51 1011.6
20260510004506 77 112 0.0 1.7 0.00 0.01 0.01 49 1011.4
20260510003014 79 112 0.0 1.7 0.00 0.01 0.01 44 1011.3
20260510001512 79 245 0.0 1.7 0.00 0.02 0.01 38 1011.4
20260510000019 79 329 0.0 3.5 0.00 0.02 0.01 35 1011.5
20260509234507 81 222 2.6 3.5 0.00 0.02 0.01 31 1011.5
20260509233019 81 218 3.5 6.1 0.00 0.02 0.01 30 1011.6
20260509231517 81 236 2.6 4.3 0.00 0.02 0.01 31 1011.5
20260509230018 80 315 1.7 5.2 0.00 0.02 0.01 31 1011.6
20260509224505 82 168 1.7 5.2 0.00 0.02 0.01 30 1011.5
20260509223010 81 271 1.7 4.3 0.00 0.02 0.01 31 1011.6
20260509221517 81 255 1.7 6.1 0.00 0.02 0.01 30 1011.6
20260509220016 82 301 2.6 7.0 0.00 0.02 0.01 29 1011.7
20260509214517 83 214 5.2 8.7 0.00 0.02 0.01 28 1011.7
20260509213012 83 229 2.6 6.1 0.00 0.02 0.01 27 1011.8
20260509211511 83 309 3.5 6.1 0.00 0.02 0.01 28 1011.9
20260509210020 81 240 0.0 6.1 0.00 0.02 0.01 28 1012.1
20260509204525 82 284 5.2 7.8 0.00 0.02 0.01 29 1012.3
20260509203030 83 328 2.6 7.0 0.00 0.02 0.01 29 1012.4
20260509201514 83 325 0.9 7.0 0.00 0.02 0.01 28 1012.4
20260509200020 82 4 0.0 7.0 0.00 0.02 0.01 29 1012.5
20260509194534 83 290 2.6 5.2 0.00 0.02 0.01 31 1012.4
20260509193025 81 193 3.5 6.1 0.00 0.02 0.01 32 1012.5
20260509191527 81 172 4.3 9.6 0.00 0.02 0.01 32 1012.8
20260509190018 81 313 2.6 8.7 0.00 0.02 0.01 32 1012.8
20260509184521 80 330 3.5 7.0 0.00 0.02 0.01 37 1013.1
20260509183024 80 304 1.7 10.4 0.00 0.02 0.01 34 1013.0
20260509181525 79 305 3.5 9.6 0.00 0.02 0.01 40 1013.1
20260509180018 80 214 3.5 7.8 0.00 0.02 0.01 39 1013.2
20260509174537 79 309 2.6 6.1 0.00 0.02 0.01 43 1013.3
20260509173024 78 152 1.7 6.1 0.00 0.02 0.01 47 1013.4
20260509171537 78 360 3.5 7.0 0.00 0.02 0.01 49 1013.5
20260509170030 77 326 2.6 7.0 0.00 0.02 0.01 53 1013.5
20260509164527 76 305 2.6 7.0 0.00 0.02 0.01 53 1013.5
20260509163034 75 160 0.9 6.1 0.00 0.02 0.01 55 1013.4
20260509161532 75 359 0.0 2.6 0.00 0.02 0.01 56 1013.3
20260509160026 73 222 0.9 5.2 0.00 0.02 0.01 60 1013.4
20260509154528 72 256 0.9 4.3 0.00 0.02 0.01 62 1013.2
20260509153041 72 307 2.6 4.3 0.00 0.02 0.01 64 1013.2
20260509151525 71 301 1.7 4.3 0.00 0.02 0.01 69 1013.4
20260509150038 68 225 2.6 4.3 0.00 0.02 0.01 76 1013.3
20260509144526 66 238 3.5 6.1 0.00 0.02 0.01 81 1013.3
20260509143026 66 209 2.6 5.2 0.00 0.02 0.01 80 1013.3
20260509141526 65 210 1.7 5.2 0.00 0.02 0.01 83 1013.3
20260509140009 66 257 1.7 4.3 0.00 0.02 0.01 81 1013.1
20260509134513 63 80 0.0 1.7 0.00 0.02 0.01 87 1012.8
20260509133018 59 131 1.7 2.6 0.00 0.02 0.01 88 1012.8
20260509131506 56 124 0.9 1.7 0.00 0.02 0.01 92 1012.8
20260509130008 54 115 0.9 1.7 0.00 0.02 0.01 93 1012.8
20260509124511 52 112 0.0 1.7 0.00 0.02 0.01 95 1012.8
20260509123017 50 122 0.0 1.7 0.00 0.02 0.01 95 1012.7
20260509121524 50 101 0.0 1.7 0.00 0.02 0.01 94 1012.6